GW0061 Weather Reports


time (UTC)temp
F
wind
direction
speed
knots
gust
knots
rain 1hr
in
rain 24hr
in
rain mn
in
humidity
%
barometer
mb
20260510234047 78 0 0.0 0.0 0.00 0.00 0.00 52 1013.9
20260510233545 79 0 0.0 0.0 0.00 0.00 0.00 51 1013.8
20260510233058 80 0 0.0 0.0 0.00 0.00 0.00 52 1013.8
20260510232547 80 0 0.0 0.0 0.00 0.00 0.00 46 1013.7
20260510232047 81 0 0.0 0.0 0.00 0.00 0.00 44 1013.7
20260510231552 81 0 0.0 0.0 0.00 0.00 0.00 43 1013.6
20260510231048 81 0 0.0 0.0 0.00 0.00 0.00 42 1013.6
20260510230548 82 0 0.0 0.0 0.00 0.00 0.00 43 1013.5
20260510230056 82 0 0.0 0.0 0.00 0.00 0.00 41 1013.5
20260510225548 82 0 0.0 0.0 0.00 0.00 0.00 40 1013.4
20260510225048 82 0 0.0 0.9 0.00 0.00 0.00 39 1013.4
20260510224550 82 0 0.0 0.9 0.00 0.00 0.00 41 1013.4
20260510224048 83 0 0.0 3.5 0.00 0.00 0.00 41 1013.4
20260510223548 83 0 0.0 3.5 0.00 0.00 0.00 41 1013.4
20260510223100 83 0 0.0 0.0 0.00 0.00 0.00 42 1013.4
20260510222548 83 0 0.0 0.0 0.00 0.00 0.00 41 1013.3
20260510222044 84 0 0.0 0.0 0.00 0.00 0.00 39 1013.3
20260510221554 84 0 0.0 0.0 0.00 0.00 0.00 40 1013.3
20260510221044 84 0 0.0 0.0 0.00 0.00 0.00 39 1013.4
20260510220547 84 0 0.0 0.0 0.00 0.00 0.00 40 1013.3
20260510220056 85 0 0.0 5.2 0.00 0.00 0.00 39 1013.2
20260510215549 85 0 0.0 5.2 0.00 0.00 0.00 39 1013.2
20260510215044 86 0 0.0 1.7 0.00 0.00 0.00 38 1013.2
20260510214554 87 0 0.0 2.6 0.00 0.00 0.00 38 1013.2
20260510214048 88 0 0.0 2.6 0.00 0.00 0.00 35 1013.2
20260510213547 88 0 0.0 2.6 0.00 0.00 0.00 39 1013.1
20260510213051 88 0 0.0 0.0 0.00 0.00 0.00 37 1013.1
20260510212547 88 0 0.0 0.9 0.00 0.00 0.00 36 1013.1
20260510212047 88 0 0.0 0.9 0.00 0.00 0.00 37 1013.1
20260510211553 88 0 0.0 0.0 0.00 0.00 0.00 36 1013.0
20260510211044 88 0 0.0 3.5 0.00 0.00 0.00 36 1013.2
20260510210546 88 0 0.0 3.5 0.00 0.00 0.00 36 1013.2
20260510210054 89 0 0.0 0.0 0.00 0.00 0.00 38 1013.1
20260510205544 88 0 0.0 0.0 0.00 0.00 0.00 39 1013.1
20260510205044 88 0 0.0 0.0 0.00 0.00 0.00 38 1013.1
20260510204552 88 0 0.0 0.0 0.00 0.00 0.00 39 1013.1
20260510204045 88 0 0.0 0.0 0.00 0.00 0.00 36 1013.1
20260510203548 89 0 0.0 0.9 0.00 0.00 0.00 39 1013.2
20260510203049 89 0 0.0 0.9 0.00 0.00 0.00 39 1013.2
20260510202548 88 0 0.0 0.9 0.00 0.00 0.00 40 1013.2
20260510202048 88 0 0.0 3.5 0.00 0.00 0.00 40 1013.2
20260510201548 88 0 0.0 3.5 0.00 0.00 0.00 40 1013.1
20260510201048 87 0 0.0 3.5 0.00 0.00 0.00 40 1013.2
20260510200548 87 0 0.0 0.0 0.00 0.00 0.00 40 1013.1
20260510200052 88 0 0.0 0.0 0.00 0.00 0.00 43 1013.2
20260510195546 88 0 0.0 0.0 0.00 0.00 0.00 43 1013.2
20260510195046 88 0 0.0 0.0 0.00 0.00 0.00 42 1013.2
20260510194558 88 0 0.0 0.0 0.00 0.00 0.00 41 1013.2
20260510194048 89 0 0.0 0.0 0.00 0.00 0.00 43 1013.3
20260510193546 89 0 0.0 0.0 0.00 0.00 0.00 42 1013.3
20260510193058 89 0 0.0 0.0 0.00 0.00 0.00 43 1013.4
20260510192549 88 0 0.0 2.6 0.00 0.00 0.00 44 1013.4
20260510192048 88 0 0.0 2.6 0.00 0.00 0.00 42 1013.5
20260510191605 88 0 0.0 4.3 0.00 0.00 0.00 44 1013.6
20260510191046 87 0 0.0 4.3 0.00 0.00 0.00 43 1013.7
20260510190547 87 0 0.0 0.0 0.00 0.00 0.00 42 1013.7
20260510190106 87 0 0.0 0.0 0.00 0.00 0.00 44 1013.8
20260510185547 87 0 0.0 0.0 0.00 0.00 0.00 47 1013.9
20260510185047 86 0 0.0 0.0 0.00 0.00 0.00 46 1014.0
20260510184553 86 0 0.0 0.0 0.00 0.00 0.00 42 1014.0
20260510184047 85 0 0.0 3.5 0.00 0.00 0.00 47 1014.0
20260510183548 85 0 0.0 3.5 0.00 0.00 0.00 52 1014.0
20260510183057 85 0 0.0 1.7 0.00 0.00 0.00 48 1014.0
20260510182547 85 0 0.0 0.0 0.00 0.00 0.00 47 1014.0
20260510182048 86 0 0.0 0.0 0.00 0.00 0.00 48 1014.0
20260510181555 86 0 0.0 0.0 0.00 0.00 0.00 49 1014.2
20260510181047 86 0 0.0 0.0 0.00 0.00 0.00 49 1014.3
20260510180548 85 0 0.0 5.2 0.00 0.00 0.00 50 1014.3
20260510180052 84 0 0.0 7.0 0.00 0.00 0.00 48 1014.3
20260510175544 85 0 0.0 7.0 0.00 0.00 0.00 47 1014.3
20260510175048 86 0 0.0 0.9 0.00 0.00 0.00 52 1014.2
20260510174557 86 0 0.0 0.0 0.00 0.00 0.00 48 1014.2
20260510174043 86 0 0.0 0.0 0.00 0.00 0.00 50 1014.2
20260510173547 85 0 0.0 3.5 0.00 0.00 0.00 52 1014.2
20260510173056 85 0 0.0 3.5 0.00 0.00 0.00 51 1014.3
20260510172546 85 0 0.0 3.5 0.00 0.00 0.00 49 1014.3
20260510172047 86 0 0.0 2.6 0.00 0.00 0.00 50 1014.3
20260510171553 86 0 0.0 5.2 0.00 0.00 0.00 49 1014.4
20260510171045 85 0 0.0 5.2 0.00 0.00 0.00 50 1014.4
20260510170546 85 0 0.0 0.0 0.00 0.00 0.00 52 1014.3
20260510170053 85 0 0.0 0.0 0.00 0.00 0.00 49 1014.3
20260510165545 85 0 0.0 0.0 0.00 0.00 0.00 55 1014.3
20260510165049 85 0 0.0 0.0 0.00 0.00 0.00 54 1014.4
20260510164558 84 0 0.0 0.0 0.00 0.00 0.00 53 1014.3
20260510164044 83 0 0.0 0.0 0.00 0.00 0.00 51 1014.5
20260510163545 83 0 0.0 0.0 0.00 0.00 0.00 51 1014.5
20260510163051 84 0 0.0 0.0 0.00 0.00 0.00 51 1014.5
20260510162545 84 0 0.0 0.0 0.00 0.00 0.00 54 1014.5
20260510162045 84 0 0.0 0.0 0.00 0.00 0.00 51 1014.6
20260510161600 84 0 0.0 0.0 0.00 0.00 0.00 52 1014.7
20260510161046 83 0 0.0 0.0 0.00 0.00 0.00 56 1014.7
20260510160546 83 0 0.0 2.6 0.00 0.00 0.00 56 1014.7
20260510160134 82 0 0.0 2.6 0.00 0.00 0.00 55 1014.9
20260510155545 82 0 0.0 0.9 0.00 0.00 0.00 55 1015.0
20260510155045 82 0 0.0 5.2 0.00 0.00 0.00 54 1015.1
20260510154606 82 0 0.0 5.2 0.00 0.00 0.00 54 1015.2
20260510154048 82 0 0.0 0.0 0.00 0.00 0.00 59 1015.2
20260510153546 81 0 0.0 0.0 0.00 0.00 0.00 63 1015.1
20260510153054 80 0 0.0 0.0 0.00 0.00 0.00 62 1015.1
20260510152547 80 0 0.0 0.0 0.00 0.00 0.00 60 1015.0
20260510152049 80 0 0.0 0.0 0.00 0.00 0.00 63 1015.0
20260510151553 80 0 0.0 0.0 0.00 0.00 0.00 59 1015.0
20260510151046 80 0 0.0 0.0 0.00 0.00 0.00 62 1015.1
20260510150546 80 0 0.0 0.0 0.00 0.00 0.00 65 1015.1
20260510150052 80 0 0.0 0.0 0.00 0.00 0.00 64 1015.1
20260510145545 79 0 0.0 0.0 0.00 0.00 0.00 69 1015.1
20260510145046 79 0 0.0 0.0 0.00 0.00 0.00 65 1015.0
20260510144552 78 0 0.0 0.0 0.00 0.00 0.00 68 1015.0
20260510144048 79 0 0.0 1.7 0.00 0.00 0.00 66 1015.1
20260510143547 78 0 0.0 1.7 0.00 0.00 0.00 66 1015.0
20260510143058 77 0 0.0 0.0 0.00 0.00 0.00 68 1015.1
20260510142548 76 0 0.0 0.0 0.00 0.00 0.00 72 1015.2
20260510142047 76 0 0.0 0.0 0.00 0.00 0.00 72 1015.0
20260510141557 75 0 0.0 0.0 0.00 0.00 0.00 72 1015.0
20260510141048 74 0 0.0 0.0 0.00 0.00 0.00 75 1015.1
20260510140547 73 0 0.0 0.0 0.00 0.00 0.00 77 1015.1
20260510140105 72 0 0.0 0.0 0.00 0.00 0.00 78 1015.1
20260510135549 72 0 0.0 0.0 0.00 0.00 0.00 80 1015.0
20260510135051 71 0 0.0 0.0 0.00 0.00 0.00 81 1015.0
20260510134602 71 0 0.0 0.0 0.00 0.00 0.00 82 1014.9
20260510134046 70 0 0.0 0.0 0.00 0.00 0.00 85 1014.7
20260510133546 70 0 0.0 0.0 0.00 0.00 0.00 86 1014.7
20260510133056 70 0 0.0 0.0 0.00 0.00 0.00 87 1014.7
20260510132548 69 0 0.0 0.0 0.00 0.00 0.00 89 1014.7
20260510132047 68 0 0.0 0.0 0.00 0.00 0.00 89 1014.9
20260510131554 68 0 0.0 0.0 0.00 0.00 0.00 90 1014.8
20260510131047 67 0 0.0 0.0 0.00 0.00 0.00 91 1014.7
20260510130548 67 0 0.0 0.0 0.00 0.00 0.00 92 1014.7
20260510130053 66 0 0.0 0.0 0.00 0.00 0.00 93 1014.6
20260510125547 66 0 0.0 0.0 0.00 0.00 0.00 94 1014.6
20260510125048 65 0 0.0 0.0 0.00 0.00 0.00 95 1014.6
20260510124552 65 0 0.0 0.0 0.00 0.00 0.00 95 1014.6
20260510124047 65 0 0.0 0.0 0.00 0.00 0.00 95 1014.5
20260510123548 65 0 0.0 0.0 0.00 0.00 0.00 95 1014.6
20260510123052 64 0 0.0 0.0 0.00 0.00 0.00 96 1014.5
20260510122544 64 0 0.0 0.0 0.00 0.00 0.00 96 1014.6
20260510122047 63 0 0.0 0.0 0.00 0.00 0.00 96 1014.5
20260510121549 63 0 0.0 0.0 0.00 0.00 0.00 96 1014.5
20260510121048 62 0 0.0 0.0 0.00 0.00 0.00 95 1014.6
20260510120547 62 0 0.0 0.0 0.00 0.00 0.00 95 1014.6
20260510120053 62 0 0.0 0.0 0.00 0.00 0.00 96 1014.4
20260510115549 62 0 0.0 0.0 0.00 0.00 0.00 95 1014.3
20260510115047 62 0 0.0 0.0 0.00 0.00 0.00 95 1014.2
20260510114550 62 0 0.0 0.0 0.00 0.00 0.00 96 1014.1
20260510114047 61 0 0.0 0.0 0.00 0.00 0.00 96 1014.1
20260510113547 61 0 0.0 0.0 0.00 0.00 0.00 95 1014.1
20260510113102 61 0 0.0 0.0 0.00 0.00 0.00 96 1013.9
20260510112547 61 0 0.0 0.0 0.00 0.00 0.00 95 1013.8
20260510112051 60 0 0.0 0.0 0.00 0.00 0.00 95 1013.8
20260510111608 60 0 0.0 0.0 0.00 0.00 0.00 95 1013.9
20260510111047 60 0 0.0 0.0 0.00 0.00 0.00 95 1013.8
20260510110549 60 0 0.0 0.0 0.00 0.00 0.00 95 1013.7
20260510110055 59 0 0.0 0.0 0.00 0.00 0.00 95 1013.7
20260510105547 59 0 0.0 0.0 0.00 0.00 0.00 95 1013.7
20260510105045 59 0 0.0 0.0 0.00 0.00 0.00 95 1013.6
20260510104552 59 0 0.0 0.0 0.00 0.00 0.00 95 1013.5
20260510104046 59 0 0.0 0.0 0.00 0.00 0.00 95 1013.4
20260510103546 59 0 0.0 0.0 0.00 0.00 0.00 95 1013.1
20260510103054 59 0 0.0 0.0 0.00 0.00 0.00 95 1013.1
20260510102546 59 0 0.0 0.0 0.00 0.00 0.00 95 1013.1
20260510102046 59 0 0.0 0.0 0.00 0.00 0.00 95 1013.1
20260510101554 59 0 0.0 0.0 0.00 0.00 0.00 95 1012.9
20260510101048 59 0 0.0 0.0 0.00 0.00 0.00 95 1012.9
20260510100546 59 0 0.0 0.0 0.00 0.00 0.00 95 1012.8
20260510100056 59 0 0.0 0.0 0.00 0.00 0.00 95 1012.7
20260510095546 59 0 0.0 0.0 0.00 0.00 0.00 95 1012.6
20260510095045 59 0 0.0 0.0 0.00 0.00 0.00 95 1012.5
20260510094555 59 0 0.0 0.0 0.00 0.00 0.00 95 1012.6
20260510094046 59 0 0.0 0.0 0.00 0.00 0.00 95 1012.6
20260510093548 59 0 0.0 0.0 0.00 0.00 0.00 95 1012.5
20260510093110 59 0 0.0 0.0 0.00 0.00 0.00 95 1012.5
20260510092548 59 0 0.0 0.0 0.00 0.00 0.00 95 1012.5
20260510092047 59 0 0.0 0.0 0.00 0.00 0.00 95 1012.3
20260510091554 59 0 0.0 0.0 0.00 0.00 0.00 95 1012.3
20260510091046 59 0 0.0 0.0 0.00 0.00 0.00 95 1012.4
20260510090547 59 0 0.0 0.0 0.00 0.00 0.00 95 1012.3
20260510090112 59 0 0.0 0.0 0.00 0.00 0.00 94 1012.2
20260510085544 59 0 0.0 0.0 0.00 0.00 0.00 94 1012.2
20260510085045 59 0 0.0 0.0 0.00 0.00 0.00 95 1012.0
20260510084552 59 0 0.0 0.0 0.00 0.00 0.00 95 1012.1
20260510084048 59 0 0.0 0.0 0.00 0.00 0.00 95 1012.0
20260510083548 59 0 0.0 0.0 0.00 0.00 0.00 95 1012.0
20260510083109 59 0 0.0 0.0 0.00 0.00 0.00 94 1012.0
20260510082546 60 0 0.0 0.0 0.00 0.00 0.00 94 1012.0
20260510082046 60 0 0.0 0.0 0.00 0.00 0.00 94 1011.9
20260510081607 60 0 0.0 0.0 0.00 0.00 0.00 95 1012.0
20260510081047 60 0 0.0 0.0 0.00 0.00 0.00 95 1011.9
20260510080547 60 0 0.0 0.0 0.00 0.00 0.00 95 1012.0
20260510080054 59 0 0.0 0.0 0.00 0.00 0.00 95 1011.9
20260510075547 59 0 0.0 0.0 0.00 0.00 0.00 94 1011.8
20260510075046 59 0 0.0 0.0 0.00 0.00 0.00 94 1011.8
20260510074600 59 0 0.0 0.0 0.00 0.00 0.00 94 1011.8
20260510074049 59 0 0.0 0.0 0.00 0.00 0.00 94 1011.8
20260510073545 59 0 0.0 0.0 0.00 0.00 0.00 94 1011.8
20260510073055 59 0 0.0 0.0 0.00 0.00 0.00 94 1011.7
20260510072547 59 0 0.0 0.0 0.00 0.00 0.00 94 1011.7
20260510072047 60 0 0.0 0.0 0.00 0.00 0.00 94 1011.6
20260510071553 60 0 0.0 0.0 0.00 0.00 0.00 94 1011.7
20260510071046 60 0 0.0 0.0 0.00 0.00 0.00 94 1011.7
20260510070547 60 0 0.0 0.0 0.00 0.00 0.00 94 1011.7
20260510070054 60 0 0.0 0.0 0.00 0.00 0.00 94 1011.8
20260510065551 60 0 0.0 0.0 0.00 0.00 0.00 94 1012.0
20260510065047 60 0 0.0 0.0 0.00 0.00 0.00 94 1011.9
20260510064602 60 0 0.0 0.0 0.00 0.00 0.00 94 1011.8
20260510064046 61 0 0.0 0.0 0.00 0.00 0.00 94 1011.8
20260510063547 61 0 0.0 0.0 0.00 0.00 0.00 94 1011.9
20260510063054 60 0 0.0 0.0 0.00 0.00 0.00 94 1011.7
20260510062546 60 0 0.0 0.0 0.00 0.00 0.00 94 1011.5
20260510062048 60 0 0.0 0.0 0.00 0.00 0.00 94 1011.6
20260510061556 60 0 0.0 0.0 0.00 0.00 0.00 94 1011.5
20260510061048 60 0 0.0 0.0 0.00 0.00 0.00 94 1011.5
20260510060548 60 0 0.0 0.0 0.00 0.00 0.00 94 1011.6
20260510060050 60 0 0.0 0.0 0.00 0.00 0.00 94 1011.6
20260510055547 60 0 0.0 0.0 0.00 0.00 0.00 94 1011.8
20260510055048 60 0 0.0 0.0 0.00 0.00 0.00 94 1011.9
20260510054551 61 0 0.0 0.0 0.00 0.00 0.00 93 1012.0
20260510054047 61 0 0.0 0.0 0.00 0.00 0.00 93 1012.0
20260510053547 61 0 0.0 0.0 0.00 0.00 0.00 93 1012.0
20260510053048 61 0 0.0 0.0 0.00 0.00 0.00 93 1012.0
20260510052547 61 0 0.0 0.0 0.00 0.00 0.00 93 1012.2
20260510052048 61 0 0.0 0.0 0.00 0.00 0.00 93 1012.2
20260510051558 61 0 0.0 0.0 0.00 0.00 0.00 93 1012.2
20260510051050 61 0 0.0 0.0 0.00 0.00 0.00 93 1012.2
20260510050548 61 0 0.0 0.0 0.00 0.00 0.00 93 1012.3
20260510050056 61 0 0.0 0.0 0.00 0.00 0.00 93 1012.3
20260510045550 61 0 0.0 0.0 0.00 0.00 0.00 93 1012.4
20260510045047 61 0 0.0 0.0 0.00 0.00 0.00 93 1012.4
20260510044637 61 0 0.0 0.0 0.00 0.00 0.00 93 1012.3
20260510044048 61 0 0.0 0.0 0.00 0.00 0.00 93 1012.3
20260510043548 61 0 0.0 0.0 0.00 0.00 0.00 93 1012.4
20260510043052 61 0 0.0 0.0 0.00 0.00 0.00 93 1012.4
20260510042544 61 0 0.0 0.0 0.00 0.00 0.00 92 1012.3
20260510042049 61 0 0.0 0.0 0.00 0.00 0.00 92 1012.2
20260510041555 61 0 0.0 0.0 0.00 0.00 0.00 92 1012.2
20260510041047 61 0 0.0 0.0 0.00 0.00 0.00 92 1012.2
20260510040547 61 0 0.0 0.0 0.00 0.00 0.00 92 1012.2
20260510040054 62 0 0.0 0.0 0.00 0.00 0.00 92 1012.0
20260510035548 62 0 0.0 0.0 0.00 0.00 0.00 92 1012.1
20260510035047 62 0 0.0 0.0 0.00 0.00 0.00 92 1012.0
20260510034553 62 0 0.0 0.0 0.00 0.00 0.00 92 1012.1
20260510034047 62 0 0.0 0.0 0.00 0.00 0.00 92 1012.0
20260510033546 62 0 0.0 0.0 0.00 0.00 0.00 92 1011.9
20260510033056 62 0 0.0 0.0 0.00 0.00 0.00 92 1012.0
20260510032547 62 0 0.0 0.0 0.00 0.00 0.00 92 1011.9
20260510032047 62 0 0.0 0.0 0.00 0.00 0.00 92 1011.8
20260510031552 62 0 0.0 0.0 0.00 0.00 0.00 91 1011.8
20260510031051 63 0 0.0 0.0 0.00 0.00 0.00 92 1011.7
20260510030548 63 0 0.0 0.0 0.00 0.00 0.00 91 1011.7
20260510030055 63 0 0.0 0.0 0.00 0.00 0.00 91 1011.7
20260510025546 63 0 0.0 0.0 0.00 0.00 0.00 91 1011.7
20260510025046 63 0 0.0 0.0 0.00 0.00 0.00 91 1011.6
20260510024551 63 0 0.0 0.0 0.00 0.00 0.00 91 1011.4
20260510024045 63 0 0.0 0.0 0.00 0.00 0.00 91 1011.4
20260510023545 63 0 0.0 0.0 0.00 0.00 0.00 91 1011.4
20260510023059 64 0 0.0 0.0 0.00 0.00 0.00 91 1011.4
20260510022546 64 0 0.0 0.0 0.00 0.00 0.00 90 1011.4
20260510022047 64 0 0.0 0.0 0.00 0.00 0.00 90 1011.4
20260510021552 64 0 0.0 0.0 0.00 0.00 0.00 90 1011.3
20260510021046 64 0 0.0 0.0 0.00 0.00 0.00 89 1011.2
20260510020547 64 0 0.0 0.0 0.00 0.00 0.00 89 1011.2
20260510020053 64 0 0.0 0.0 0.00 0.00 0.00 89 1011.3
20260510015546 64 0 0.0 0.0 0.00 0.00 0.00 88 1011.4
20260510015049 65 0 0.0 0.0 0.00 0.00 0.00 88 1011.2
20260510014551 65 0 0.0 0.0 0.00 0.00 0.00 88 1011.1
20260510014047 65 0 0.0 0.0 0.00 0.00 0.00 88 1011.0
20260510013549 65 0 0.0 0.0 0.00 0.00 0.00 87 1010.9
20260510013049 65 0 0.0 0.0 0.00 0.00 0.00 87 1011.0
20260510012546 66 0 0.0 0.0 0.00 0.00 0.00 87 1010.9
20260510012046 66 0 0.0 0.0 0.00 0.00 0.00 86 1010.9
20260510011556 66 0 0.0 0.0 0.00 0.00 0.00 86 1010.9
20260510011046 66 0 0.0 0.0 0.00 0.00 0.00 85 1010.9
20260510010545 67 0 0.0 0.0 0.00 0.00 0.00 85 1010.9
20260510010121 67 0 0.0 0.0 0.00 0.00 0.00 85 1010.7
20260510005547 67 0 0.0 0.0 0.00 0.00 0.00 85 1010.7
20260510005047 68 0 0.0 0.0 0.00 0.00 0.00 84 1010.7
20260510004553 68 0 0.0 0.0 0.00 0.00 0.00 84 1010.7
20260510004048 68 0 0.0 0.0 0.00 0.00 0.00 83 1010.5
20260510003547 69 0 0.0 0.0 0.00 0.00 0.00 83 1010.6
20260510003052 69 0 0.0 0.0 0.00 0.00 0.00 83 1010.5
20260510002547 69 0 0.0 0.0 0.00 0.00 0.00 83 1010.5
20260510002046 70 0 0.0 0.0 0.00 0.00 0.00 81 1010.5
20260510001550 70 0 0.0 0.0 0.00 0.00 0.00 81 1010.6
20260510001048 71 0 0.0 0.0 0.00 0.00 0.00 81 1010.6
20260510000548 71 0 0.0 0.0 0.00 0.00 0.00 80 1010.4
20260510000047 71 0 0.0 0.0 0.00 0.00 0.00 79 1010.4
20260509235545 71 0 0.0 0.0 0.00 0.00 0.00 79 1010.3
20260509235045 72 0 0.0 0.0 0.00 0.00 0.00 78 1010.2
20260509234557 72 0 0.0 0.0 0.00 0.00 0.00 78 1010.3